Location: Newark
(45.4667°N, 11.4500°E)
Time: 18:49:53
(UTC+00:00)

N. Korean satellite - Visible Passes

Search period start: 15 November 2019 00:00
Search period end: 25 November 2019 00:00
Orbit: 456 x 506 km, 97.2° (Epoch: 14 November)

Date Brightness Start Highest point End Pass type
(mag) Time Alt. Az. Time Alt. Az. Time Alt. Az.
15 Nov 8.3 04:43:40 10° NNE 04:47:09 37° E 04:50:36 10° SSE visible
15 Nov 8.8 16:54:29 10° SSW 16:57:41 29° W 17:00:57 10° NNW visible
16 Nov 9.6 04:18:54 10° NE 04:21:38 19° E 04:24:20 10° SE visible
16 Nov 7.2 16:28:38 10° S 16:32:13 61° W 16:35:53 10° NNW visible
17 Nov 6.6 05:26:07 10° N 05:29:49 64° WNW 05:33:27 10° SSW visible
18 Nov 7.2 05:00:45 10° NNE 05:04:26 61° E 05:08:04 10° S visible
18 Nov 9.7 17:12:23 10° SW 17:15:01 19° W 17:17:43 10° NW visible
19 Nov 8.7 04:35:40 10° NNE 04:38:58 30° E 04:42:13 10° SSE visible
19 Nov 8.4 16:46:06 10° SSW 16:49:29 36° W 16:52:56 10° NNW visible
20 Nov 9.9 04:11:06 10° NE 04:13:24 16° E 04:15:40 10° SE visible
20 Nov 7.1 05:43:29 10° N 05:46:58 39° WNW 05:50:23 10° SW visible
20 Nov 6.8 16:20:24 10° S 16:24:02 78° WSW 16:27:46 10° NNW visible
21 Nov 6.5 05:17:56 10° N 05:21:39 80° WNW 05:25:18 10° SSW visible
21 Nov 10.1 17:30:51 10° WSW 17:32:23 12° W 17:33:56 10° WNW visible
22 Nov 7.7 04:52:38 10° NNE 04:56:14 48° E 04:59:46 10° S visible
22 Nov 9.3 17:03:48 10° SSW 17:06:46 23° W 17:09:47 10° NW visible
23 Nov 9.1 04:27:40 10° NE 04:30:43 24° E 04:33:43 10° SSE visible
23 Nov 7.9 16:37:42 10° S 16:41:15 46° W 16:44:51 10° NNW visible
24 Nov 10.1 04:03:27 10° ENE 04:05:06 13° E 04:06:45 10° ESE visible
24 Nov 6.8 05:35:13 10° N 05:38:48 48° WNW 05:42:17 10° SSW visible
24 Nov 6.6 16:12:09 10° SSE 16:15:50 84° ENE 16:19:34 10° N visible
